{"data":{"norad_id":63947,"intl_designator":"2025-098X","name":"STARLINK-34034","alt_names":[],"object_type":"PAYLOAD","status":"ACTIVE","operator":null,"country":"US","launch_date":"2025-05-13","launch_site_code":"AFWTR","launch_vehicle":null,"mission":null,"orbit_class":"UNKNOWN","rcs_meters":null,"size_class":null,"mass_kg":null,"dimensions":null,"purposes":["comms"],"wikipedia_slug":null,"has_3d_model":false,"image_url":null,"decayed_at":null,"tle_current":{"epoch":"2026-09-20T22:39:32.454432Z","epoch_age_seconds":108753,"freshness":"FRESH","line1":"1 63947U 25098X   26263.94412563  .00004263  00000+0  15264-3 0  9991","line2":"2 63947  69.9999 139.6044 0003063 269.0262  91.0562 15.29581607 75861","mean_motion":15.29581607,"eccentricity":0.0003063,"inclination_deg":69.9999,"raan_deg":139.6044,"arg_perigee_deg":269.0262,"mean_anomaly_deg":91.0562,"bstar":0.00015264,"rev_number":7586,"period_min":94.143391461427,"perigee_km":474.96235400789,"apogee_km":479.16184897746,"semimajor_km":6855.1991014927,"source":"CELESTRAK","updated_at":"2026-09-21T09:00:35.172350Z"}}}